This demonstration page uses our WeatherBlox Daily Observations layout. Learn more.

Left ArrowRight Arrow

Hourly Observations for March 14, 2018

Temp ( °F °C ) Dew Point ( °F °C ) Humidity (%) Winds ( mph kmh ) Pressure ( in mb ) Visibility ( mi km ) Precip ( " mm )
12:53 am 00:53 Clear 32 0 4 -15.6 30 30 S 7 11 30.31 1026 10 16 0.00 0.00
1:53 am 01:53 Clear 29 -1.7 4 -15.6 34 34 S 7 11 30.29 1026 10 16 0.00 0.00
2:53 am 02:53 Clear 29 -1.7 4 -15.6 34 34 S 6 9 30.28 1025 10 16 0.00 0.00
3:53 am 03:53 Clear 30 -1.1 4 -15.6 33 33 SSW 9 15 30.25 1024 10 16 0.00 0.00
4:53 am 04:53 Clear 30 -1.1 4 -15.6 33 33 SSW 8 13 30.22 1023 10 16 0.00 0.00
5:53 am 05:53 Clear 30 -1.1 5 -15 34 34 SW 7 11 30.20 1023 10 16 0.00 0.00
6:53 am 06:53 Clear 28 -2.2 6 -14.4 39 39 SW 6 9 30.19 1022 10 16 0.00 0.00
7:53 am 07:53 Sunny 26 -3.3 8 -13.3 46 46 WSW 6 9 30.18 1022 10 16 0.00 0.00
8:53 am 08:53 Sunny 32 0 9 -12.8 38 38 SW 6 9 30.18 1022 10 16 0.00 0.00
9:53 am 09:53 Sunny 42 5.6 15 -9.4 33 33 WSW 9 15 30.16 1021 10 16 0.00 0.00
10:53 am 10:53 Sunny 50 10 19 -7.2 29 29 WSW 13 20 30.13 1020 10 16 0.00 0.00
11:53 am 11:53 Sunny 57 13.9 23 -5 27 27 SW 9 15 30.09 1019 10 16 0.00 0.00
12:53 pm 12:53 Sunny 60 15.6 24 -4.4 25 25 SW 13 20 30.05 1018 10 16 0.00 0.00
1:53 pm 13:53 Sunny 61 16.1 23 -5 23 23 SW 13 20 30.02 1017 10 16 0.00 0.00
2:53 pm 14:53 Sunny 65 18.3 25 -3.9 22 22 SW 10 17 29.97 1015 10 16 0.00 0.00
3:53 pm 15:53 Sunny 66 18.9 25 -3.9 21 21 SSW 10 17 29.93 1014 10 16 0.00 0.00
4:53 pm 16:53 Sunny 68 20 25 -3.9 20 20 SSW 13 20 29.90 1013 10 16 0.00 0.00
5:53 pm 17:53 Sunny 67 19.4 25 -3.9 20 20 SSW 12 19 29.88 1012 10 16 0.00 0.00
6:53 pm 18:53 Sunny 66 18.9 25 -3.9 21 21 SSW 9 15 29.88 1012 10 16 0.00 0.00
7:53 pm 19:53 Clear 60 15.6 25 -3.9 26 26 S 5 7 29.88 1012 10 16 0.00 0.00
8:53 pm 20:53 Clear 56 13.3 25 -3.9 30 30 S 3 6 29.88 1012 10 16 0.00 0.00
9:53 pm 21:53 Clear 51 10.6 24 -4.4 35 35 S 5 7 29.86 1011 10 16 0.00 0.00
10:53 pm 22:53 Clear 52 11.1 25 -3.9 35 35 SSE 6 9 29.84 1011 10 16 0.00 0.00
11:53 pm 23:53 Clear 51 10.6 25 -3.9 36 36 SSE 5 7 29.82 1010 10 16 0.00 0.00

Powered by AerisWeather